Find Viasat-3 Americas

NORAD ID: 56370 Int'l Des: 2023-060 Owner: VIA Country: US Constellation: viasat operational
HEOCIRCULARGSOGEO

リアルタイム位置

3D地球を読み込み中...

Viasat-3 Americasについて

説明を読み込み中...

次回通過

Passes for default location (London). Set your location on the main map for personalized predictions.

高度履歴

Loading altitude history...

軌道要素

1 56370U 23060A 26104.46039838 -.00000181 00000-0 00000+0 0 9996
2 56370 0.0166 260.0206 0001030 199.6559 179.7817 1.00269299 10795
Epoch: Apr 14, 2026 • Age: 12 hours

現在のステータス

高度 35782.5 km
速度 3.08 km/s
衛星直下点 -0.02°S, 88.93°W
打ち上げ日 May 1, 2023
運用期間 2.9 years
タイプ other

技術仕様

分類 Payload
質量 6418.00 kg
乾燥質量 3500.00 kg
総質量 6418.00 kg
長さ 7.00 m
直径 3.00 m
スパン 44.00 m
形状 Box + 2 pan
製造者 BOES
バスタイプ BSS-702MP+
フェーズステータス In Orbit
所有者/国 VIA/US

Most Searched